Time,TemperatureF,DewpointF,PressureIn,WindDirection,WindDirectionDegrees,WindSpeedMPH,WindSpeedGustMPH,Humidity,HourlyPrecipIn,Conditions,Clouds,dailyrainin,SoftwareType,DateUTC
2013-05-09 00:03:00,60.0,58.0,-100.00,NW,310,1.0,3.0,94,0.00,,,-99.99,,2013-05-09 04:03:00,
2013-05-09 00:12:00,59.0,58.0,-100.00,WNW,295,0.0,1.0,94,1.10,,,-99.99,,2013-05-09 04:12:00,
2013-05-09 00:23:00,59.0,57.0,-100.00,SSW,205,1.0,3.0,94,0.00,,,-99.99,,2013-05-09 04:23:00,
2013-05-09 00:33:00,59.0,58.0,-100.00,SSW,195,2.0,3.0,94,0.00,,,-99.99,,2013-05-09 04:33:00,
2013-05-09 00:43:00,59.0,58.0,-100.00,SSW,195,2.0,3.0,94,0.00,,,-99.99,,2013-05-09 04:43:00,
2013-05-09 00:52:00,59.0,57.0,-100.00,SW,215,1.0,3.0,95,0.00,,,-99.99,,2013-05-09 04:52:00,
2013-05-09 01:02:00,58.0,57.0,-100.00,SW,230,1.0,1.0,95,0.00,,,-99.99,,2013-05-09 05:02:00,
2013-05-09 01:12:00,59.0,57.0,-100.00,WSW,240,1.0,2.0,95,0.00,,,-99.99,,2013-05-09 05:12:00,
2013-05-09 01:22:00,58.0,57.0,-100.00,NNW,340,0.0,1.0,95,0.00,,,-99.99,,2013-05-09 05:22:00,
2013-05-09 01:32:00,58.0,57.0,-100.00,NW,310,0.0,1.0,95,0.00,,,-99.99,,2013-05-09 05:32:00,
2013-05-09 01:42:00,58.0,57.0,-100.00,NW,310,0.0,1.0,95,0.00,,,-99.99,,2013-05-09 05:42:00,
2013-05-09 01:51:00,59.0,57.0,-100.00,SW,215,0.0,2.0,95,0.00,,,-99.99,,2013-05-09 05:51:00,
2013-05-09 02:02:00,58.0,57.0,-100.00,NW,305,1.0,1.0,95,0.00,,,-99.99,,2013-05-09 06:02:00,
2013-05-09 02:12:00,58.0,57.0,-100.00,NW,305,0.0,2.0,95,0.00,,,-99.99,,2013-05-09 06:12:00,
2013-05-09 02:22:00,58.0,57.0,-100.00,WNW,295,0.0,1.0,95,0.00,,,-99.99,,2013-05-09 06:22:00,
2013-05-09 02:32:00,58.0,57.0,-100.00,NW,325,0.0,1.0,95,0.00,,,-99.99,,2013-05-09 06:32:00,
2013-05-09 02:42:00,58.0,57.0,-100.00,NW,325,0.0,1.0,95,0.00,,,-99.99,,2013-05-09 06:42:00,
2013-05-09 02:52:00,58.0,57.0,-100.00,WNW,290,0.0,2.0,95,0.00,,,-99.99,,2013-05-09 06:52:00,
2013-05-09 03:01:00,58.0,57.0,-100.00,SSE,150,1.0,4.0,95,0.00,,,-99.99,,2013-05-09 07:01:00,
2013-05-09 03:12:00,58.0,56.0,-100.00,ENE,60,0.0,2.0,95,0.00,,,-99.99,,2013-05-09 07:12:00,
2013-05-09 03:22:00,58.0,57.0,-100.00,North,0,0.0,1.0,95,0.00,,,-99.99,,2013-05-09 07:22:00,
2013-05-09 03:32:00,58.0,56.0,-100.00,North,350,0.0,2.0,95,0.00,,,-99.99,,2013-05-09 07:32:00,
2013-05-09 03:42:00,57.0,56.0,-100.00,West,275,0.0,1.0,95,0.00,,,-99.99,,2013-05-09 07:42:00,
2013-05-09 03:52:00,57.0,56.0,-100.00,West,275,0.0,1.0,95,0.00,,,-99.99,,2013-05-09 07:52:00,
2013-05-09 04:02:00,57.0,56.0,-100.00,NW,325,0.0,2.0,96,0.00,,,-99.99,,2013-05-09 08:02:00,
2013-05-09 04:11:00,57.0,56.0,-100.00,South,190,0.0,1.0,96,0.00,,,-99.99,,2013-05-09 08:11:00,
2013-05-09 04:21:00,57.0,56.0,-100.00,North,0,1.0,2.0,96,0.00,,,-99.99,,2013-05-09 08:21:00,
2013-05-09 04:32:00,57.0,56.0,-100.00,North,0,1.0,2.0,96,0.00,,,-99.99,,2013-05-09 08:32:00,
2013-05-09 04:42:00,56.0,55.0,-100.00,SSW,210,1.0,2.0,96,0.00,,,-99.99,,2013-05-09 08:42:00,
2013-05-09 04:51:00,56.0,55.0,-100.00,NNW,335,0.0,3.0,96,0.00,,,-99.99,,2013-05-09 08:51:00,
2013-05-09 05:02:00,56.0,55.0,-100.00,NNW,330,0.0,4.0,96,0.00,,,-99.99,,2013-05-09 09:02:00,
2013-05-09 05:11:00,56.0,55.0,-100.00,WNW,295,0.0,1.0,96,0.00,,,-99.99,,2013-05-09 09:11:00,
2013-05-09 05:21:00,56.0,55.0,-100.00,North,355,0.0,2.0,96,0.00,,,-99.99,,2013-05-09 09:21:00,
2013-05-09 05:32:00,56.0,55.0,-100.00,NNW,335,0.0,2.0,96,0.00,,,-99.99,,2013-05-09 09:32:00,
2013-05-09 05:43:00,56.0,55.0,-100.00,South,175,0.0,2.0,96,0.00,,,-99.99,,2013-05-09 09:43:00,
2013-05-09 05:52:00,56.0,55.0,-100.00,West,275,0.0,3.0,96,0.00,,,-99.99,,2013-05-09 09:52:00,
2013-05-09 06:02:00,56.0,55.0,-100.00,ESE,105,1.0,5.0,96,0.00,,,-99.99,,2013-05-09 10:02:00,
2013-05-09 06:12:00,56.0,55.0,-100.00,SSW,200,2.0,6.0,96,0.00,,,-99.99,,2013-05-09 10:12:00,
2013-05-09 06:22:00,56.0,55.0,-100.00,SSW,200,2.0,6.0,96,0.00,,,-99.99,,2013-05-09 10:22:00,
2013-05-09 06:33:00,56.0,55.0,-100.00,South,170,4.0,8.0,96,0.00,,,-99.99,,2013-05-09 10:33:00,
2013-05-09 06:42:00,56.0,55.0,-100.00,South,170,2.0,7.0,96,0.00,,,-99.99,,2013-05-09 10:42:00,
2013-05-09 06:52:00,56.0,55.0,-100.00,SSE,155,2.0,5.0,96,0.00,,,-99.99,,2013-05-09 10:52:00,
2013-05-09 07:02:00,57.0,56.0,-100.00,SW,225,3.0,9.0,96,0.00,,,-99.99,,2013-05-09 11:02:00,
2013-05-09 07:12:00,57.0,56.0,-100.00,East,85,0.0,6.0,96,0.00,,,-99.99,,2013-05-09 11:12:00,
2013-05-09 07:22:00,58.0,57.0,-100.00,South,175,2.0,6.0,95,0.00,,,-99.99,,2013-05-09 11:22:00,
2013-05-09 07:32:00,59.0,57.0,-100.00,WNW,290,1.0,3.0,94,0.00,,,-99.99,,2013-05-09 11:32:00,
2013-05-09 07:41:00,59.0,57.0,-100.00,NNW,335,1.0,4.0,93,0.00,,,-99.99,,2013-05-09 11:41:00,
2013-05-09 07:51:00,59.0,56.0,-100.00,SW,235,1.0,4.0,91,0.00,,,-99.99,,2013-05-09 11:51:00,
2013-05-09 08:01:00,59.0,56.0,-100.00,SW,235,1.0,4.0,91,0.00,,,-99.99,,2013-05-09 12:01:00,
2013-05-09 08:11:00,59.0,56.0,-100.00,SW,235,1.0,4.0,91,0.00,,,-99.99,,2013-05-09 12:11:00,
2013-05-09 08:22:00,60.0,55.0,-100.00,North,0,1.0,3.0,82,0.00,,,-99.99,,2013-05-09 12:22:00,
2013-05-09 08:32:00,60.0,55.0,-100.00,North,0,1.0,3.0,81,0.00,,,-99.99,,2013-05-09 12:32:00,
2013-05-09 08:43:00,60.0,55.0,-100.00,NNW,340,2.0,5.0,82,0.00,,,-99.99,,2013-05-09 12:43:00,
2013-05-09 08:52:00,60.0,55.0,-100.00,NNW,340,2.0,5.0,82,0.00,,,-99.99,,2013-05-09 12:52:00,
2013-05-09 09:01:00,62.0,54.0,-100.00,WNW,285,1.0,6.0,75,0.00,,,-99.99,,2013-05-09 13:01:00,
2013-05-09 09:12:00,63.0,54.0,-100.00,NW,310,2.0,6.0,72,0.00,,,-99.99,,2013-05-09 13:12:00,
2013-05-09 09:22:00,64.0,53.0,-100.00,NNW,345,2.0,6.0,69,0.00,,,-99.99,,2013-05-09 13:22:00,
2013-05-09 09:32:00,63.0,53.0,-100.00,NW,315,2.0,4.0,69,0.00,,,-99.99,,2013-05-09 13:32:00,
2013-05-09 09:42:00,64.0,53.0,-100.00,WNW,295,2.0,5.0,67,0.00,,,-99.99,,2013-05-09 13:42:00,
2013-05-09 09:52:00,66.0,53.0,-100.00,North,0,4.0,6.0,62,0.00,,,-99.99,,2013-05-09 13:52:00,
2013-05-09 10:02:00,67.0,53.0,-100.00,NW,310,2.0,8.0,60,0.00,,,-99.99,,2013-05-09 14:02:00,
2013-05-09 10:11:00,68.0,53.0,-100.00,North,0,2.0,7.0,59,0.00,,,-99.99,,2013-05-09 14:11:00,
2013-05-09 10:22:00,68.0,53.0,-100.00,NW,315,4.0,7.0,58,0.00,,,-99.99,,2013-05-09 14:22:00,
2013-05-09 10:32:00,68.0,53.0,-100.00,North,0,5.0,8.0,58,0.00,,,-99.99,,2013-05-09 14:32:00,
2013-05-09 10:42:00,69.0,54.0,-100.00,NW,305,6.0,10.0,57,0.00,,,-99.99,,2013-05-09 14:42:00,
2013-05-09 10:52:00,70.0,54.0,-100.00,NW,305,2.0,9.0,56,0.00,,,-99.99,,2013-05-09 14:52:00,
2013-05-09 11:01:00,71.0,55.0,-100.00,NW,310,6.0,9.0,55,0.00,,,-99.99,,2013-05-09 15:01:00,
2013-05-09 11:11:00,71.0,55.0,-100.00,NW,310,6.0,9.0,55,0.00,,,-99.99,,2013-05-09 15:11:00,
2013-05-09 11:22:00,71.0,54.0,-100.00,NNE,15,6.0,11.0,53,0.00,,,-99.99,,2013-05-09 15:22:00,
2013-05-09 11:33:00,71.0,54.0,-100.00,NW,320,4.0,10.0,55,0.00,,,-99.99,,2013-05-09 15:33:00,
2013-05-09 11:43:00,72.0,54.0,-100.00,North,0,5.0,9.0,53,0.00,,,-99.99,,2013-05-09 15:43:00,
2013-05-09 11:53:00,73.0,54.0,-100.00,North,0,6.0,11.0,51,0.00,,,-99.99,,2013-05-09 15:53:00,
2013-05-09 12:03:00,73.0,52.0,-100.00,NNW,345,7.0,9.0,47,0.00,,,-99.99,,2013-05-09 16:03:00,
2013-05-09 12:12:00,73.0,53.0,-100.00,NW,315,5.0,11.0,48,0.00,,,-99.99,,2013-05-09 16:12:00,
2013-05-09 12:23:00,75.0,53.0,-100.00,North,350,5.0,11.0,45,0.00,,,-99.99,,2013-05-09 16:23:00,
2013-05-09 12:33:00,75.0,52.0,-100.00,NW,320,4.0,10.0,44,0.00,,,-99.99,,2013-05-09 16:33:00,
2013-05-09 12:42:00,75.0,51.0,-100.00,North,0,5.0,9.0,43,0.00,,,-99.99,,2013-05-09 16:42:00,
2013-05-09 12:52:00,76.0,49.0,-100.00,North,0,6.0,11.0,39,0.00,,,-99.99,,2013-05-09 16:52:00,
2013-05-09 13:02:00,76.0,47.0,-100.00,NNE,15,6.0,12.0,36,0.00,,,-99.99,,2013-05-09 17:02:00,
2013-05-09 13:12:00,75.0,48.0,-100.00,NNE,15,9.0,12.0,38,0.00,,,-99.99,,2013-05-09 17:12:00,
2013-05-09 13:21:00,77.0,47.0,-100.00,WNW,285,4.0,9.0,34,0.00,,,-99.99,,2013-05-09 17:21:00,
2013-05-09 13:32:00,77.0,47.0,-100.00,NNW,345,5.0,9.0,34,0.00,,,-99.99,,2013-05-09 17:32:00,
2013-05-09 13:42:00,77.0,44.0,-100.00,NW,310,6.0,14.0,30,0.00,,,-99.99,,2013-05-09 17:42:00,
2013-05-09 13:55:00,76.0,44.0,-100.00,NNE,15,4.0,10.0,31,0.00,,,-99.99,,2013-05-09 17:55:00,
2013-05-09 14:01:00,78.0,44.0,-100.00,NW,310,3.0,7.0,29,0.00,,,-99.99,,2013-05-09 18:01:00,
2013-05-09 14:12:00,79.0,42.0,-100.00,North,5,5.0,9.0,27,0.00,,,-99.99,,2013-05-09 18:12:00,
2013-05-09 14:21:00,79.0,42.0,-100.00,SSE,160,1.0,10.0,26,0.00,,,-99.99,,2013-05-09 18:21:00,
2013-05-09 14:32:00,78.0,41.0,-100.00,North,355,6.0,11.0,26,0.00,,,-99.99,,2013-05-09 18:32:00,
2013-05-09 14:42:00,78.0,40.0,-100.00,NNW,340,9.0,16.0,26,0.00,,,-99.99,,2013-05-09 18:42:00,
2013-05-09 14:52:00,79.0,41.0,-100.00,WSW,245,2.0,12.0,25,0.00,,,-99.99,,2013-05-09 18:52:00,
2013-05-09 15:01:00,79.0,41.0,-100.00,North,0,4.0,13.0,25,0.00,,,-99.99,,2013-05-09 19:01:00,
2013-05-09 15:12:00,79.0,41.0,-100.00,North,0,4.0,13.0,25,0.00,,,-99.99,,2013-05-09 19:12:00,
2013-05-09 15:21:00,79.0,40.0,-100.00,SSW,210,2.0,12.0,24,0.00,,,-99.99,,2013-05-09 19:21:00,
2013-05-09 15:32:00,80.0,40.0,-100.00,WNW,300,5.0,11.0,23,0.00,,,-99.99,,2013-05-09 19:32:00,
2013-05-09 15:41:00,80.0,39.0,-100.00,WNW,300,5.0,12.0,23,0.00,,,-99.99,,2013-05-09 19:41:00,
2013-05-09 15:52:00,80.0,39.0,-100.00,WNW,300,5.0,12.0,23,0.00,,,-99.99,,2013-05-09 19:52:00,
2013-05-09 16:01:00,79.0,38.0,-100.00,NNW,345,4.0,13.0,22,0.00,,,-99.99,,2013-05-09 20:01:00,
2013-05-09 16:11:00,80.0,39.0,-100.00,WNW,290,3.0,6.0,23,0.00,,,-99.99,,2013-05-09 20:11:00,
2013-05-09 16:22:00,79.0,40.0,-100.00,North,5,4.0,11.0,24,0.00,,,-99.99,,2013-05-09 20:22:00,
2013-05-09 16:32:00,80.0,40.0,-100.00,NE,35,2.0,8.0,24,0.00,,,-99.99,,2013-05-09 20:32:00,
2013-05-09 16:42:00,79.0,40.0,-100.00,NW,310,6.0,9.0,25,0.00,,,-99.99,,2013-05-09 20:42:00,
2013-05-09 16:52:00,80.0,41.0,-100.00,NNW,335,4.0,7.0,24,0.00,,,-99.99,,2013-05-09 20:52:00,
2013-05-09 17:02:00,80.0,41.0,-100.00,NNW,335,4.0,7.0,24,0.00,,,-99.99,,2013-05-09 21:02:00,
2013-05-09 17:12:00,78.0,39.0,-100.00,ESE,110,1.0,9.0,24,0.00,,,-99.99,,2013-05-09 21:12:00,
2013-05-09 17:22:00,78.0,39.0,-100.00,North,0,7.0,12.0,24,0.00,,,-99.99,,2013-05-09 21:22:00,
2013-05-09 17:32:00,77.0,38.0,-100.00,NNE,30,4.0,9.0,24,0.00,,,-99.99,,2013-05-09 21:32:00,
2013-05-09 17:43:00,78.0,39.0,-100.00,NE,45,2.0,7.0,24,0.00,,,-99.99,,2013-05-09 21:43:00,
2013-05-09 17:52:00,78.0,39.0,-100.00,NE,45,2.0,7.0,24,0.00,,,-99.99,,2013-05-09 21:52:00,
2013-05-09 18:03:00,78.0,38.0,-100.00,ENE,70,2.0,7.0,23,0.00,,,-99.99,,2013-05-09 22:03:00,
2013-05-09 18:13:00,78.0,38.0,-100.00,North,5,2.0,7.0,23,0.00,,,-99.99,,2013-05-09 22:13:00,
2013-05-09 18:23:00,78.0,37.0,-100.00,NNE,30,3.0,7.0,23,0.00,,,-99.99,,2013-05-09 22:23:00,
2013-05-09 18:33:00,78.0,37.0,-100.00,NNE,25,2.0,6.0,23,0.00,,,-99.99,,2013-05-09 22:33:00,
2013-05-09 18:42:00,78.0,37.0,-100.00,NE,55,1.0,6.0,23,0.00,,,-99.99,,2013-05-09 22:42:00,
2013-05-09 18:52:00,77.0,36.0,-100.00,NNE,15,1.0,7.0,23,0.00,,,-99.99,,2013-05-09 22:52:00,
2013-05-09 19:02:00,76.0,36.0,-100.00,NNE,25,1.0,6.0,23,0.00,,,-99.99,,2013-05-09 23:02:00,
2013-05-09 19:12:00,76.0,37.0,-100.00,NNE,15,2.0,5.0,24,0.00,,,-99.99,,2013-05-09 23:12:00,
2013-05-09 19:22:00,76.0,37.0,-100.00,NE,40,1.0,4.0,24,0.00,,,-99.99,,2013-05-09 23:22:00,
2013-05-09 19:32:00,75.0,37.0,-100.00,NNE,30,1.0,5.0,24,0.00,,,-99.99,,2013-05-09 23:32:00,
2013-05-09 19:42:00,75.0,36.0,-100.00,NE,50,1.0,3.0,24,0.00,,,-99.99,,2013-05-09 23:42:00,
2013-05-09 19:52:00,74.0,37.0,-100.00,ENE,60,1.0,3.0,26,0.00,,,-99.99,,2013-05-09 23:52:00,
2013-05-09 20:01:00,73.0,37.0,-100.00,South,170,2.0,4.0,26,0.00,,,-99.99,,2013-05-10 00:01:00,
2013-05-09 20:11:00,72.0,38.0,-100.00,SSE,165,2.0,4.0,28,0.00,,,-99.99,,2013-05-10 00:11:00,
2013-05-09 20:22:00,72.0,38.0,-100.00,SSE,165,1.0,4.0,29,0.00,,,-99.99,,2013-05-10 00:22:00,
2013-05-09 20:32:00,71.0,38.0,-100.00,South,170,2.0,5.0,30,0.00,,,-99.99,,2013-05-10 00:32:00,
2013-05-09 20:42:00,71.0,38.0,-100.00,South,170,2.0,5.0,30,0.00,,,-99.99,,2013-05-10 00:42:00,
2013-05-09 20:52:00,70.0,39.0,-100.00,SSE,155,2.0,4.0,32,0.00,,,-99.99,,2013-05-10 00:52:00,
2013-05-09 21:01:00,70.0,39.0,-100.00,SSE,155,2.0,4.0,32,0.00,,,-99.99,,2013-05-10 01:01:00,
2013-05-09 21:11:00,69.0,39.0,-100.00,South,175,1.0,3.0,33,0.00,,,-99.99,,2013-05-10 01:11:00,
2013-05-09 21:22:00,69.0,39.0,-100.00,SSE,165,2.0,6.0,33,0.00,,,-99.99,,2013-05-10 01:22:00,
2013-05-09 21:32:00,68.0,38.0,-100.00,South,170,1.0,4.0,33,0.00,,,-99.99,,2013-05-10 01:32:00,
2013-05-09 21:42:00,67.0,39.0,-100.00,SSE,165,2.0,4.0,35,0.00,,,-99.99,,2013-05-10 01:42:00,
2013-05-09 21:52:00,67.0,39.0,-100.00,SSE,165,2.0,4.0,35,0.00,,,-99.99,,2013-05-10 01:52:00,
2013-05-09 22:02:00,68.0,39.0,-100.00,SSE,160,3.0,4.0,34,0.00,,,-99.99,,2013-05-10 02:02:00,
2013-05-09 22:11:00,68.0,39.0,-100.00,SE,145,2.0,4.0,34,0.00,,,-99.99,,2013-05-10 02:11:00,
2013-05-09 22:21:00,68.0,39.0,-100.00,SSE,150,2.0,4.0,34,0.00,,,-99.99,,2013-05-10 02:21:00,
2013-05-09 22:32:00,68.0,39.0,-100.00,SE,145,2.0,5.0,34,0.00,,,-99.99,,2013-05-10 02:32:00,
2013-05-09 22:42:00,68.0,39.0,-100.00,SSE,155,2.0,6.0,34,0.00,,,-99.99,,2013-05-10 02:42:00,
2013-05-09 22:52:00,68.0,38.0,-100.00,SSE,150,4.0,6.0,33,0.00,,,-99.99,,2013-05-10 02:52:00,
2013-05-09 23:01:00,68.0,38.0,-100.00,SSE,165,4.0,6.0,33,0.00,,,-99.99,,2013-05-10 03:01:00,
2013-05-09 23:11:00,68.0,38.0,-100.00,SSE,155,4.0,6.0,33,0.00,,,-99.99,,2013-05-10 03:11:00,
2013-05-09 23:22:00,68.0,38.0,-100.00,SSE,150,4.0,7.0,33,0.00,,,-99.99,,2013-05-10 03:22:00,
2013-05-09 23:33:00,68.0,38.0,-100.00,SSE,150,4.0,7.0,33,0.00,,,-99.99,,2013-05-10 03:33:00,
2013-05-09 23:43:00,68.0,38.0,-100.00,SSE,150,4.0,7.0,33,0.00,,,-99.99,,2013-05-10 03:43:00,
2013-05-09 23:53:00,68.0,38.0,-100.00,SSE,150,4.0,7.0,33,0.00,,,-99.99,,2013-05-10 03:53:00,